Tracking 19146 objects as of 24-Apr-2018
HD Live streaming from Space Station
objects crossing your sky now

FENGYUN 1C DEB

Track FENGYUN 1C DEB now!
10-day predictions


NORAD ID: 31657
Int'l Code: 1999-025CBP
Perigee: 834.9 km
Apogee: 1,102.0 km
Inclination: 102.2 °
Period: 104.3 minutes
Semi major axis: 7339 km
RCS: 0.0116 m2 (small)
Launch date: May 10, 1999
Source: People's Republic of China (PRC)
Launch site: Taiyaun Space Center, China (TSC)

Note: This is SATELLITE DEBRIS
aabbcc
Your satellite tracking list
Your tracking list is empty




NASA's NSSDC Master Catalog

Two Line Element Set (TLE):
1 31657U 99025CBP 18113.09398470 +.00001241 +00000-0 +10988-2 0  9997
2 31657 102.2348 218.7538 0181948 232.9877 125.4496 13.80737164242174
Source of the keplerian elements: AFSPC